Station 45006 (LLNR 16540) - WEST SUPERIOR - 30NM NE of Outer Island, WI Image indicating link to RSS feed of recent meteorological observations for station 45006


Conditions at 45006 as of
(7:10 am EDT)
1110 GMT on 05/20/2024:
     

Click on the graph icon in the table below to see a time series plot of the last five days of that observation.

5-day plot - Wind Direction Wind Direction (WDIR):NNE ( 30 deg true )
5-day plot - Wind Speed Wind Speed (WSPD): 1.9 kts
5-day plot - Wind Gust Wind Gust (GST): 3.9 kts
5-day plot - Atmospheric Pressure Atmospheric Pressure (PRES):29.91 in
5-day plot - Air Temperature Air Temperature (ATMP): 40.3 °F
5-day plot - Water Temperature Water Temperature (WTMP): 37.8 °F
5-day plot - Dew Point Dew Point (DEWP): 37.9 °F
5-day plot - Wind Speed at 10 Meters Wind Speed at 10 meters (WSPD10M): 3.9 kts
5-day plot - Wind Speed at 20 Meters Wind Speed at 20 meters (WSPD20M): 3.9 kts
5-day plot -  Wind Speed, Wind Gust and Atmospheric Pressure Combined plot of Wind Speed, Gust, and Air Pressure
Supplemental Measurements
Highest 1-minute Wind Speed
Time (EDT)5-day plot - 1-Minute Wind Speed WSPD 5-day plot - 1-Minute Wind Direction WDIR
7:06 am 3.9 kts-
Previous observations
TIME
(EDT)
5-day plot - Wind Direction
WDIR
 
5-day plot - Wind Speed
WSPD
kts
5-day plot - Wind Gust
GST
kts
5-day plot - Wave Height
WVHT
ft
5-day plot - Dominant Wave Period
DPD
sec
5-day plot - Average Wave Period
APD
sec
5-day plot - Mean Wave Direction
MWD
 
5-day plot - Atmospheric Pressure
PRES
in
5-day plot - Pressure Tendency
PTDY
in
5-day plot - Air Temperature
ATMP
°F
5-day plot - Water Temperature
WTMP
°F
5-day plot - Dew Point
DEWP
°F
5-day plot - Salinity
SAL
psu
5-day plot - Visibility
VIS
nmi
5-day plot - Tide (above MLLW)
TIDE
ft
2024-05-20 07:00 am N 3.9 5.8----29.91+0.01 39.9 37.8 37.9---
2024-05-20 06:50 am N 1.9 5.8 0.3-3.2-29.91- 39.7 37.8 37.8---
2024-05-20 06:40 am N 3.9 7.8 0.3-3.2-29.90- 40.8 37.8 37.9---
2024-05-20 06:30 amWNW 1.9 3.9----29.89- 41.7 37.8 37.9---
2024-05-20 06:20 amSSE 1.9 3.9 0.3-3.0-29.89- 41.9 37.8 38.1---
2024-05-20 06:10 amESE 1.9 3.9 0.3-3.0-29.89- 41.9 37.8 38.1---
2024-05-20 06:00 am SE 3.9 5.8----29.88-0.02 42.3 37.8 38.1---
2024-05-20 05:50 am SE 3.9 3.9 0.3-2.9-29.88- 41.9 37.8 37.9---
2024-05-20 05:40 amESE 3.9 3.9----29.89- 41.9 37.8 37.9---
2024-05-20 05:30 amESE 5.8 7.8----29.88- 41.4- 37.6---
2024-05-20 05:20 am E 5.8 7.8 0.3-2.9-29.88- 41.0 37.8 37.2---
2024-05-20 05:10 amENE 5.8 7.8 0.3-2.9-29.89- 41.9 37.8 37.0---
2024-05-20 05:00 am NE 5.8 5.8----29.89-0.03 42.1 37.8 37.0---
2024-05-20 04:50 amENE 5.8 7.8----29.89- 42.6 37.8 37.2---
2024-05-20 04:40 am NE 3.9 3.9----29.89- 42.8 37.8 37.0---
2024-05-20 04:30 amENE 3.9 5.8----29.89- 43.5 37.8 37.0---
2024-05-20 04:20 amENE 5.8 7.8----29.88- 44.1 37.8 36.7---
2024-05-20 04:10 am NE 3.9 5.8----29.89- 43.9 37.8 36.5---
2024-05-20 04:00 am N 3.9 5.8----29.90-0.03 42.8 37.8 36.5---
2024-05-20 03:50 amNNE 1.9 7.8----29.90- 43.0- 36.5---
2024-05-20 03:40 amESE 5.8 5.8----29.90- 45.0 37.8 36.5---
2024-05-20 03:30 amESE 5.8 7.8----29.89- 45.0 37.8 36.3---
2024-05-20 03:20 am SE 7.8 7.8----29.89- 44.8 37.8 36.1---
2024-05-20 03:10 amESE 7.8 9.7----29.90- 45.9 37.8 36.1---
2024-05-20 03:00 am SE 7.8 9.7----29.90-0.02 45.7 37.8 35.8---
2024-05-20 02:50 am SE 5.8 7.8----29.90- 46.6 37.8 35.8---
2024-05-20 02:40 amSSE 3.9 5.8----29.91- 45.7 37.8 35.8---
2024-05-20 02:30 am SE 5.8 5.8----29.91- 47.5 37.8 35.6---
2024-05-20 02:20 am SE 5.8 5.8----29.91- 47.1 37.8 35.6---
2024-05-20 02:10 amSSE 5.8 7.8----29.92- 47.7 37.8 35.4---
2024-05-20 02:00 amSSE 7.8 9.7----29.92-0.01 48.0 37.8 35.2---
2024-05-20 01:50 amSSE 7.8 9.7----29.92- 52.5 37.8 35.1---
2024-05-20 01:40 amSSE 5.8 7.8----29.92- 51.3 37.8 34.9---
2024-05-20 01:30 amSSE 3.9 5.8----29.92- 54.1 37.8 34.2---
2024-05-20 01:20 am SE 3.9 5.8----29.92- 54.3 37.8 34.3---
2024-05-20 01:10 amSSE 1.9 3.9----29.92- 53.6 37.8 34.3---
2024-05-20 01:00 am SE 1.9 3.9----29.93+0.00 51.8 37.8 34.7---
2024-05-20 12:50 am E 1.9 3.9----29.92- 49.8 37.8 34.7---
2024-05-20 12:40 amNNE 3.9 3.9----29.93- 47.8 37.8 34.7---
2024-05-20 12:30 amNNE 3.9 5.8----29.93- 46.2 37.8 35.1---
2024-05-20 12:20 amNNE 3.9 5.8----29.93- 47.3 37.8 35.1---
2024-05-20 12:10 amNNE 3.9 5.8----29.92- 48.4 37.8 34.9---
2024-05-20 12:00 am N 5.8 7.8----29.92+0.01 47.1 37.8 35.2---
2024-05-19 11:50 pm E 1.9 5.8----29.93- 46.9 37.8 35.6---
2024-05-19 11:40 pm SE 3.9 7.8----29.92- 43.7 37.8 35.8---
2024-05-19 11:30 pmSSE 5.8 7.8----29.92- 44.1 37.8 35.8---
2024-05-19 11:20 pm S 7.8 7.8----29.93- 44.4 37.8 36.0---
2024-05-19 11:10 pm S 7.8 9.7----29.93- 46.9 37.8 35.8---
2024-05-19 11:00 pmSSW 7.8 9.7----29.93-0.02 52.0 37.8 35.6---
2024-05-19 10:50 pm SW 5.8 7.8----29.92-- 37.8----
2024-05-19 10:40 pm SW 5.8 5.8----29.92-- 37.8----
2024-05-19 10:30 pm---------- 37.8----
2024-05-19 10:20 pmSSW 3.9 5.8----29.93- 48.7 37.8 35.4---
2024-05-19 10:10 pm S 3.9 3.9----29.92- 47.8 37.8 35.6---
2024-05-19 10:00 pm S 1.9 1.9----29.92-0.04 47.5 37.8 35.4---
2024-05-19 09:50 pm- 0.0 1.9----29.91- 47.5 37.8 35.6---
2024-05-19 09:40 pmSSE 1.9 3.9----29.92- 48.7 37.8 35.4---
2024-05-19 09:30 pm S 3.9 3.9----29.92- 50.5 37.8 35.2---
2024-05-19 09:20 pm S 1.9 3.9----29.91- 50.2 37.8 35.2---
2024-05-19 09:10 pm S 1.9 3.9----29.91- 49.1 37.8 35.4---
2024-05-19 09:00 pmSSW 1.9 3.9----29.92-0.04 49.6 37.8 35.4---
2024-05-19 08:50 pm SW 1.9 3.9----29.93- 46.9 37.8 35.8---
2024-05-19 08:40 pm SW 1.9 3.9----29.93- 45.7 37.8 36.0---
2024-05-19 08:30 pm SW 3.9 5.8----29.94- 45.9 37.8 35.8---
2024-05-19 08:20 pm SW 5.8 5.8----29.95- 47.1 37.8 35.8---
2024-05-19 08:10 pm SW 5.8 7.8----29.95- 47.7 37.8 35.8---
2024-05-19 08:00 pmSSW 7.8 9.7----29.95+0.00 45.3 37.8 36.1---
2024-05-19 07:50 pmSSW 7.8 7.8----29.95- 44.1 37.8 36.3---
2024-05-19 07:40 pmSSW 5.8 7.8----29.95- 44.4 37.8 36.1---
2024-05-19 07:30 pmSSW 5.8 7.8----29.95- 43.9 37.8 36.3---
2024-05-19 07:20 pmSSW 5.8 7.8----29.95- 43.5- 36.3---
2024-05-19 07:10 pm SW 5.8 5.8----29.95- 44.2 37.8 36.3---
2024-05-19 07:00 pmWSW 5.8 7.8----29.96+0.00 45.0 37.8 36.1---
2024-05-19 06:50 pmWSW 7.8 7.8----29.96- 46.0 37.8 36.1---
2024-05-19 06:40 pm SW 7.8 9.7----29.96- 46.6 37.8 36.1---
2024-05-19 06:30 pm SW 9.7 9.7----29.96- 45.7 37.8 36.1---
2024-05-19 06:20 pm SW 9.7 9.7----29.97- 44.4 37.8 36.3---
2024-05-19 06:10 pmSSW 9.7 11.7----29.96- 46.8 37.8 36.1---
2024-05-19 06:00 pmWSW 11.7 13.6----29.96-0.01 49.8 37.8 35.8---
2024-05-19 05:50 pmWSW 11.7 11.7----29.96- 50.0 37.8 35.8---
2024-05-19 05:40 pm SW 11.7 13.6----29.95- 49.3 37.8 35.8---
2024-05-19 05:30 pm SW 11.7 11.7----29.95- 48.2 37.8 36.0---
2024-05-19 05:20 pm SW 9.7 11.7----29.95- 47.7 37.8 36.1---
2024-05-19 05:10 pm SW 9.7 11.7----29.95- 47.1 37.8 36.1---
2024-05-19 05:00 pm SW 9.7 11.7----29.95-0.02 47.3 37.8 36.0---
2024-05-19 04:50 pm SW 9.7 9.7----29.95- 46.4 37.8 36.1---
2024-05-19 04:40 pm SW 9.7 11.7----29.96- 45.9 37.8 36.1---
2024-05-19 04:30 pm SW 9.7 11.7----29.96- 45.3 37.8 36.3---
2024-05-19 04:20 pm SW 9.7 11.7----29.96- 45.3 37.8 36.5---
2024-05-19 04:10 pm SW 11.7 13.6----29.96- 45.9 37.8 36.5---
2024-05-19 04:00 pmSSW 11.7 13.6----29.96+0.01 45.7 37.9 36.7---
2024-05-19 03:50 pmSSW 11.7 13.6----29.96- 45.9 37.9 36.9---
2024-05-19 03:40 pmSSW 11.7 13.6----29.96- 45.5 37.8 37.0---
2024-05-19 03:30 pmSSW 11.7 13.6----29.97- 45.5 37.8 37.0---
2024-05-19 03:20 pmSSW 11.7 13.6----29.97- 45.5 37.8 37.0---
2024-05-19 03:10 pmSSW 11.7 13.6----29.97- 45.9 37.8 37.4---
2024-05-19 03:00 pmSSW 11.7 15.5----29.97+0.01 46.0 37.8 37.6---
2024-05-19 02:50 pmSSW 11.7 13.6----29.98- 45.3 37.8 37.6---
2024-05-19 02:40 pmSSW 13.6 13.6----29.97- 45.5 37.8 37.6---
2024-05-19 02:30 pmSSW 13.6 13.6----29.97- 45.7 37.8 37.8---
2024-05-19 02:20 pmSSW 13.6 15.5----29.97- 45.5 37.8 37.6---
2024-05-19 02:10 pmSSW 11.7 13.6----29.97- 45.5 37.8 37.8---
2024-05-19 02:00 pmSSW 11.7 15.5----29.97+0.01 45.0 37.8 37.9---
2024-05-19 01:50 pm SW 11.7 13.6----29.96- 44.6 37.8 37.9---
2024-05-19 01:40 pmSSW 11.7 15.5----29.96- 44.8 37.8 37.9---
2024-05-19 01:30 pmSSW 13.6 15.5----29.96- 45.1 37.8 38.1---
2024-05-19 01:20 pmSSW 13.6 15.5----29.97- 44.2 37.8 38.1---
2024-05-19 01:10 pmSSW 11.7 13.6----29.96- 43.5 37.8 38.1---
2024-05-19 01:00 pmSSW 9.7 11.7----29.96-0.01 43.2 37.9 38.1---
2024-05-19 12:50 pmSSW 11.7 13.6----29.96- 43.2- 38.3---
2024-05-19 12:40 pmSSW 9.7 11.7----29.96- 43.0 37.8 38.1---
2024-05-19 12:30 pmSSW 9.7 11.7----29.96- 43.2 37.8 37.9---
2024-05-19 12:20 pmSSW 9.7 11.7----29.96- 43.7 37.8 37.9---
2024-05-19 12:10 pm SW 9.7 11.7----29.96- 43.9 37.8 38.1---
2024-05-19 12:00 pm SW 9.7 11.7----29.96+0.01 43.3 37.8 38.1---
2024-05-19 11:50 am SW 9.7 11.7----29.96- 43.0 37.8 38.1---
2024-05-19 11:40 am SW 9.7 11.7----29.96- 42.6 37.8 38.1---
2024-05-19 11:30 am SW 9.7 9.7----29.96- 43.0 37.8 38.1---
2024-05-19 11:20 am SW 9.7 11.7----29.96- 43.3 37.8 38.1---
2024-05-19 11:10 am SW 11.7 13.6----29.96- 43.7 37.8 38.1---
2024-05-19 11:00 am SW 13.6 15.5----29.96+0.04 44.4 37.8 38.3---
2024-05-19 10:50 am SW 11.7 13.6----29.96- 43.5 37.8 38.3---
2024-05-19 10:40 am SW 11.7 13.6----29.96- 42.8 37.8 38.1---
2024-05-19 10:30 am SW 11.7 13.6----29.96- 42.8 37.8 38.3---
2024-05-19 10:20 am SW 9.7 11.7----29.96- 42.6 37.8 38.1---
2024-05-19 10:10 am SW 9.7 11.7----29.96- 42.4 37.8 37.9---
2024-05-19 10:00 am SW 11.7 13.6----29.96+0.06 42.8 37.8 38.1---
2024-05-19 09:50 am SW 11.7 13.6----29.97- 43.0 37.8 37.9---
2024-05-19 09:40 amWSW 11.7 13.6----29.96- 43.5 37.8 37.9---
2024-05-19 09:30 amWSW 13.6 15.5----29.96- 43.3 37.8 38.1---
2024-05-19 09:20 am---------- 37.8----
2024-05-19 09:10 am SW 11.7 13.6----29.96- 43.3 37.6 38.1---
2024-05-19 09:00 am SW 11.7 13.6----29.95+0.06 43.2 37.6 38.1---
2024-05-19 08:50 am SW 11.7 13.6----29.95- 42.8 37.6 38.3---
2024-05-19 08:40 am SW 11.7 13.6----29.94- 42.1 37.6 38.3---
2024-05-19 08:30 am SW 11.7 13.6----29.93- 41.7 37.6 38.1---
2024-05-19 08:20 am SW 9.7 11.7----29.93- 41.2 37.6 38.1---
2024-05-19 08:10 am SW 9.7 9.7----29.92- 41.2 37.6 38.1---
2024-05-19 08:00 am SW 9.7 9.7----29.92+0.03 41.2 37.6 37.9---
2024-05-19 07:50 am SW 9.7 11.7----29.91- 41.2 37.6 37.8---
2024-05-19 07:40 am SW 7.8 9.7----29.92- 40.8 37.6 37.6---
2024-05-19 07:30 am SW 7.8 9.7----29.92- 41.2 37.6 37.6---
2024-05-19 07:20 am SW 9.7 9.7----29.91- 41.4 37.6 37.6---
2024-05-19 07:10 am SW 9.7 9.7----29.91- 41.5 37.6 37.6---
2024-05-19 07:00 amWSW 9.7 9.7----29.91+0.04 41.9 37.6 37.6---
2024-05-19 06:50 am SW 9.7 11.7----29.91- 42.1 37.6 37.8---

Detailed Wave Summary
for 45006 as of (6:40 am EDT)
1040 GMT on 05/20/2024:

These wave data are displayed in rounded times.

     

Click on the graph icon in the table below to see a time series plot of the last five days of that observation.

5-day plot - Significant Wave Height Significant Wave Height (WVHT): 0.3 ft
5-day plot - Average Wave Period Average Wave Period (APD): 3.2 sec
Previous observations
TIME
(EDT)
5-day plot - Wave Height
WVHT
ft
5-day plot - Swell Height
SwH
ft
5-day plot - Swell Period
SwP
sec
5-day plot - Swell Direction
SwD
 
5-day plot - Wind Wave Height
WWH
ft
5-day plot - Wind Wave Period
WWP
sec
5-day plot - Wind Wave Direction
WWD
 
5-day plot - Wave Steepness
STEEPNESS
 
5-day plot - Average Wave Period
APD
sec
2024-05-20 06:10 am 0.3------ N/A 3.0
2024-05-20 05:40 am 0.3------ N/A 2.9
2024-05-20 05:10 am 0.3------ N/A 2.9

Plot of wave energy versus frequency (and period)